Chapel Hill, NC

10:50 AM EST on February 06, 2016 (GMT -0500)
Williams

Weather History for KIGX - November, 2012

Change the Weather History Date:

Monday, November 5, 2012

  Actual Average Record
Temperature  
Mean Temperature 46 °F -  
Max Temperature 55 °F 65 °F 83 °F (1948)
Min Temperature 37 °F 41 °F 24 °F (2006)
Degree Days  
Heating Degree Days 19    
Moisture  
Dew Point 33 °F    
Average Humidity 65    
Maximum Humidity 83    
Minimum Humidity 38    
Precipitation  
Precipitation 0.00 in - - ()
Sea Level Pressure  
Sea Level Pressure 30.07 in    
Wind  
Wind Speed 2 mph (North)    
Max Wind Speed 7 mph    
Max Gust Speed -    
Visibility 10 miles    
Events      
Averages and records for this station are not official NWS values.
T = Trace of Precipitation, MM = Missing Value Source: NWS Daily Summary

Daily Weather History Graph

Daily Weather History Graph

Search for Another Location

Airport or City:

Trip Planner

Search our weather history database for the weather conditions in past years. The results will help you decide how hot, cold, wet, or windy it might be!

Date:

Astronomy

Nov. 05, 2012 Rise Set
Actual Time 6:43 AM EST 5:16 PM EST
Civil Twilight 6:16 AM EST 5:42 PM EST
Nautical Twilight 5:45 AM EST 6:13 PM EST
Astronomical Twilight 5:15 AM EST 6:43 PM EST
Moon 10:51 PM EST (11/5) 12:01 PM EST (11/5)
Length of Visible Light 11h 26m
Length of Day
10h 33m
Waning Gibbous, 63% of the Moon is Illuminated
Nov 5
Waning Gibbous
Nov 6
Last Quarter
Nov 13
New
Nov 20
First Quarter
Nov 28
Full

Hourly Weather History & Observations

Time (EST) Temp. Windchill Dew Point Humidity Pressure Visibility Wind Dir Wind Speed Gust Speed Precip Events Conditions
12:56 AM 46.0 °F - 41.0 °F 83% 30.02 in 10.0 mi Calm Calm - N/A   Overcast
1:56 AM 45.0 °F 43.5 °F 39.9 °F 82% 30.02 in 10.0 mi WNW 3.5 mph - N/A   Overcast
2:56 AM 45.0 °F 43.5 °F 37.9 °F 76% 30.03 in 10.0 mi NW 3.5 mph - N/A   Overcast
3:56 AM 44.1 °F - 35.1 °F 71% 30.03 in 10.0 mi Calm Calm - N/A   Mostly Cloudy
4:56 AM 42.1 °F - 35.1 °F 76% 30.05 in 10.0 mi Calm Calm - N/A   Overcast
5:31 AM 42.8 °F 41.1 °F 37.4 °F 81% 30.06 in 10.0 mi NNE 3.5 mph - N/A   Overcast
5:56 AM 42.1 °F 38.4 °F 33.1 °F 70% 30.07 in 10.0 mi ENE 5.8 mph - N/A   Overcast
6:56 AM 39.0 °F - 33.1 °F 79% 30.08 in 10.0 mi Calm Calm - N/A   Clear
7:56 AM 42.1 °F 37.7 °F 32.0 °F 67% 30.10 in 10.0 mi Variable 6.9 mph - N/A   Mostly Cloudy
8:56 AM 44.1 °F 40.8 °F 30.9 °F 60% 30.12 in 10.0 mi Variable 5.8 mph - N/A   Partly Cloudy
9:56 AM 46.9 °F - 30.0 °F 52% 30.11 in 10.0 mi North 6.9 mph - N/A   Clear
10:56 AM 50.0 °F - 30.0 °F 46% 30.09 in 10.0 mi Variable 4.6 mph - N/A   Clear
11:56 AM 52.0 °F - 30.9 °F 45% 30.07 in 10.0 mi Variable 3.5 mph - N/A   Clear
12:56 PM 53.1 °F - 30.9 °F 43% 30.05 in 10.0 mi Variable 5.8 mph - N/A   Clear
1:56 PM 55.0 °F - 30.0 °F 38% 30.04 in 10.0 mi North 5.8 mph - N/A   Clear
2:56 PM 55.0 °F - 30.0 °F 38% 30.03 in 10.0 mi NW 5.8 mph - N/A   Clear
3:56 PM 55.0 °F - 30.0 °F 38% 30.04 in 10.0 mi North 3.5 mph - N/A   Clear
4:56 PM 48.9 °F - 32.0 °F 52% 30.05 in 10.0 mi Calm Calm - N/A   Clear
5:56 PM 43.0 °F - 34.0 °F 71% 30.06 in 10.0 mi Calm Calm - N/A   Clear
6:56 PM 42.1 °F - 34.0 °F 73% 30.09 in 10.0 mi Calm Calm - N/A   Clear
7:56 PM 41.0 °F - 32.0 °F 70% 30.11 in 10.0 mi Calm Calm - N/A   Clear
8:56 PM 39.0 °F - 33.1 °F 79% 30.12 in 10.0 mi Calm Calm - N/A   Clear
9:56 PM 39.0 °F - 32.0 °F 76% 30.13 in 10.0 mi Calm Calm - N/A   Clear
10:56 PM 37.9 °F - 30.9 °F 76% 30.12 in 10.0 mi Calm Calm - N/A   Clear
11:56 PM 37.9 °F - 30.9 °F 76% 30.12 in 10.0 mi Calm Calm - N/A   Clear